Atka, AK

4:50 PM HST on February 13, 2016 (GMT -1000)
Atka

Weather History for PAAK - March, 2013

Change the Weather History Date:

Wednesday, March 27, 2013

  Actual Average (PADK) Record (PADK)
Temperature  
Mean Temperature 38 °F -  
Max Temperature 41 °F 39 °F 46 °F (1965)
Min Temperature 35 °F 30 °F 21 °F (1959)
Degree Days  
Heating Degree Days 27    
Moisture  
Dew Point 31 °F    
Average Humidity 77    
Maximum Humidity 93    
Minimum Humidity 41    
Precipitation  
Precipitation 0.00 in - - ()
Sea Level Pressure  
Sea Level Pressure 29.30 in    
Wind  
Wind Speed 13 mph (South)    
Max Wind Speed 26 mph    
Max Gust Speed 39 mph    
Visibility 8 miles    
Events      
Averages and records for this station are not official NWS values.
T = Trace of Precipitation, MM = Missing Value Source: NWS Daily Summary

Daily Weather History Graph

Daily Weather History Graph

Search for Another Location

Airport or City:

Trip Planner

Search our weather history database for the weather conditions in past years. The results will help you decide how hot, cold, wet, or windy it might be!

Date:

Astronomy

Mar. 27, 2013 Rise Set
Actual Time 8:21 AM HDT 9:03 PM HDT
Civil Twilight 7:47 AM HDT 9:37 PM HDT
Nautical Twilight 7:06 AM HDT 10:18 PM HDT
Astronomical Twilight 6:23 AM HDT 11:02 PM HDT
Moon 10:15 PM HDT (3/27) 8:13 AM HDT (3/27)
Length of Visible Light 13h 49m
Length of Day
12h 41m
Full, 100% of the Moon is Illuminated
Mar 27
Full
Apr 2
Last Quarter
Apr 10
New
Apr 18
First Quarter
Apr 25
Full

Hourly Weather History & Observations

Time (HDT) Temp. Windchill Dew Point Humidity Pressure Visibility Wind Dir Wind Speed Gust Speed Precip Events Conditions
12:16 AM 37.4 °F 30.3 °F 30.2 °F 75% 29.41 in - SSW 10.4 mph - N/A   Mostly Cloudy
12:36 AM 37.4 °F 29.8 °F 32.0 °F 81% 29.41 in - SW 11.5 mph - N/A   Mostly Cloudy
12:56 AM 37.4 °F 32.8 °F 32.0 °F 81% 29.42 in - WSW 5.8 mph - N/A   Mostly Cloudy
1:16 AM 37.4 °F 31.4 °F 30.2 °F 75% 29.42 in - SW 8.1 mph - N/A   Overcast
1:36 AM 37.4 °F 30.8 °F 28.4 °F 70% 29.42 in - SW 9.2 mph - N/A   Overcast
1:56 AM 37.4 °F 32.1 °F 30.2 °F 75% 29.42 in - SSW 6.9 mph - N/A   Mostly Cloudy
2:16 AM 37.4 °F 30.8 °F 30.2 °F 75% 29.42 in - SSW 9.2 mph - N/A   Overcast
2:36 AM 37.4 °F 30.8 °F 28.4 °F 70% 29.42 in - SW 9.2 mph - N/A   Overcast
2:56 AM 37.4 °F 30.8 °F 26.6 °F 65% 29.41 in - SSW 9.2 mph - N/A   Overcast
3:16 AM 37.4 °F 30.8 °F 30.2 °F 75% 29.42 in - South 9.2 mph - N/A   Overcast
3:36 AM 37.4 °F 27.8 °F 30.2 °F 75% 29.42 in - SSW 17.3 mph 23.0 mph N/A   Overcast
3:56 AM 37.4 °F 28.9 °F 30.2 °F 75% 29.42 in - SSW 13.8 mph 23.0 mph N/A   Overcast
4:16 AM 37.4 °F 30.3 °F 30.2 °F 75% 29.41 in - South 10.4 mph - N/A   Mostly Cloudy
4:36 AM 37.4 °F 29.3 °F 30.2 °F 75% 29.40 in - South 12.7 mph 20.7 mph N/A   Mostly Cloudy
4:56 AM 37.4 °F 29.8 °F 30.2 °F 75% 29.40 in - SSW 11.5 mph 19.6 mph N/A   Mostly Cloudy
5:16 AM 37.4 °F 29.8 °F 30.2 °F 75% 29.39 in - South 11.5 mph - N/A   Mostly Cloudy
5:36 AM 37.4 °F 27.8 °F 30.2 °F 75% 29.39 in - SSW 17.3 mph 20.7 mph N/A   Mostly Cloudy
5:56 AM 35.6 °F 29.2 °F 28.4 °F 75% 29.39 in - SW 8.1 mph - N/A   Overcast
6:16 AM 35.6 °F 28.0 °F 30.2 °F 81% 29.38 in - South 10.4 mph - N/A   Overcast
6:36 AM 35.6 °F 28.6 °F 30.2 °F 81% 29.38 in - South 9.2 mph - N/A   Mostly Cloudy
6:56 AM 37.4 °F 30.3 °F 30.2 °F 75% 29.37 in - South 10.4 mph 21.9 mph N/A   Overcast
7:16 AM 35.6 °F 25.5 °F 28.4 °F 75% 29.36 in - SSW 17.3 mph 23.0 mph N/A   Overcast
7:36 AM 35.6 °F 25.9 °F 28.4 °F 75% 29.36 in - SSW 16.1 mph 21.9 mph N/A   Mostly Cloudy
7:56 AM 35.6 °F 25.5 °F 28.4 °F 75% 29.36 in - South 17.3 mph 28.8 mph N/A   Mostly Cloudy
8:16 AM 35.6 °F 25.9 °F 28.4 °F 75% 29.36 in - South 16.1 mph - N/A   Mostly Cloudy
8:36 AM 35.6 °F 26.2 °F 28.4 °F 75% 29.36 in - SSW 15.0 mph - N/A   Partly Cloudy
10:16 AM 37.4 °F 28.2 °F 15.8 °F 41% 29.35 in - South 16.1 mph 19.6 mph N/A   Unknown
10:36 AM 39.2 °F 30.8 °F 30.2 °F 70% 29.34 in 10.0 mi South 15.0 mph 21.9 mph N/A   Overcast
10:56 AM 37.4 °F 27.5 °F 28.4 °F 70% 29.34 in - South 18.4 mph 21.9 mph N/A   Mostly Cloudy
11:16 AM 39.2 °F 29.8 °F 30.2 °F 70% 29.34 in 10.0 mi South 18.4 mph 24.2 mph N/A   Mostly Cloudy
11:36 AM 39.2 °F 29.3 °F 28.4 °F 65% 29.34 in 10.0 mi South 20.7 mph 27.6 mph N/A   Overcast
11:56 AM 37.4 °F 28.2 °F 30.2 °F 75% 29.34 in 10.0 mi SSE 16.1 mph 19.6 mph N/A   Mostly Cloudy
12:16 PM 39.2 °F 31.2 °F 28.4 °F 65% 29.33 in 10.0 mi SSE 13.8 mph 25.3 mph N/A   Overcast
12:36 PM 37.4 °F 28.5 °F 30.2 °F 75% 29.33 in 10.0 mi SSE 15.0 mph 21.9 mph N/A   Mostly Cloudy
12:56 PM 39.2 °F 29.8 °F 30.2 °F 70% 29.32 in 10.0 mi SSE 18.4 mph 24.2 mph N/A   Mostly Cloudy
1:16 PM 39.2 °F 29.6 °F 33.8 °F 81% 29.31 in 10.0 mi South 19.6 mph 25.3 mph N/A   Overcast
1:36 PM 39.2 °F 29.3 °F 30.2 °F 70% 29.31 in 10.0 mi South 20.7 mph 26.5 mph N/A   Overcast
1:56 PM 41.0 °F 31.6 °F 30.2 °F 65% 29.31 in 10.0 mi South 20.7 mph 29.9 mph N/A   Overcast
2:16 PM 39.2 °F 29.8 °F 30.2 °F 70% 29.30 in 9.0 mi SSE 18.4 mph 27.6 mph N/A   Overcast
2:36 PM 41.0 °F 31.1 °F 30.2 °F 65% 29.29 in 8.0 mi South 23.0 mph 31.1 mph N/A   Overcast
2:56 PM 41.0 °F 32.5 °F 30.2 °F 65% 29.28 in 9.0 mi SSE 17.3 mph 27.6 mph N/A   Overcast
3:16 PM 41.0 °F 31.4 °F 30.2 °F 65% 29.27 in 7.0 mi SSE 21.9 mph 28.8 mph N/A   Overcast
3:36 PM 37.4 °F 26.4 °F 32.0 °F 81% 29.26 in 3.0 mi SSE 23.0 mph 27.6 mph N/A   Mostly Cloudy
3:56 PM 37.4 °F 27.2 °F 32.0 °F 81% 29.25 in 5.0 mi South 19.6 mph 32.2 mph N/A   Overcast
4:16 PM 37.4 °F 26.9 °F 33.8 °F 87% 29.24 in 6.0 mi SSE 20.7 mph 34.5 mph N/A   Overcast
4:36 PM 37.4 °F 25.6 °F 33.8 °F 87% 29.23 in 5.0 mi SSE 26.5 mph 34.5 mph N/A   Overcast
4:56 PM 37.4 °F 27.2 °F 33.8 °F 87% 29.21 in 4.0 mi SSE 19.6 mph 38.0 mph N/A   Overcast
5:16 PM 37.4 °F 27.5 °F 33.8 °F 87% 29.20 in 5.0 mi SSE 18.4 mph 27.6 mph N/A   Mostly Cloudy
5:36 PM 37.4 °F 27.2 °F 33.8 °F 87% 29.19 in 5.0 mi SE 19.6 mph 27.6 mph N/A   Overcast
5:56 PM 37.4 °F 26.9 °F 35.6 °F 93% 29.18 in 4.0 mi SSE 20.7 mph 39.1 mph N/A   Overcast
8:16 PM 37.4 °F 27.8 °F 33.8 °F 87% 29.13 in 10.0 mi SSE 17.3 mph 25.3 mph N/A   Overcast
8:36 PM 37.4 °F 28.5 °F 32.0 °F 81% 29.12 in 9.0 mi SSE 15.0 mph 24.2 mph N/A   Overcast
8:56 PM 37.4 °F 28.5 °F 33.8 °F 87% 29.11 in 10.0 mi SE 15.0 mph 26.5 mph N/A   Overcast
9:16 PM 35.6 °F 26.2 °F 30.2 °F 81% 29.12 in 9.0 mi SSE 15.0 mph 23.0 mph N/A   Overcast
9:36 PM 35.6 °F 27.1 °F 32.0 °F 87% 29.11 in 10.0 mi SE 12.7 mph 20.7 mph N/A   Overcast
9:56 PM 35.6 °F 26.6 °F 32.0 °F 87% 29.11 in 5.0 mi South 13.8 mph 23.0 mph N/A   Overcast
10:16 PM 35.6 °F 26.2 °F 32.0 °F 87% 29.10 in 10.0 mi SSE 15.0 mph 24.2 mph N/A   Mostly Cloudy
10:36 PM 37.4 °F 28.9 °F 32.0 °F 81% 29.10 in 10.0 mi ESE 13.8 mph - N/A   Overcast
10:56 PM 37.4 °F 28.5 °F 32.0 °F 81% 29.09 in 10.0 mi SE 15.0 mph 25.3 mph N/A   Overcast
11:16 PM 37.4 °F 28.2 °F 33.8 °F 87% 29.09 in 10.0 mi SE 16.1 mph 25.3 mph N/A   Overcast
11:36 PM 37.4 °F 26.9 °F 33.8 °F 87% 29.08 in 9.0 mi SSE 20.7 mph 25.3 mph N/A   Overcast
11:56 PM 37.4 °F 27.5 °F 33.8 °F 87% 29.08 in 10.0 mi SSE 18.4 mph 31.1 mph N/A   Overcast